This demonstration page uses our WeatherBlox Daily Observations layout. Learn more.

Left ArrowRight Arrow

41.12389, -100.76542

Hourly Observations for March 21, 2021

Temp ( °F °C ) Dew Point ( °F °C ) Humidity (%) Winds ( mph kmh ) Pressure ( in mb ) Visibility ( mi km ) Precip ( " mm )
12:53 am 00:53 Clear 53 11.7 37 2.8 55 55 SE 17 28 29.69 1006 10 16 0.00 0.00
1:53 am 01:53 Clear 52 11.1 37 2.8 57 57 SE 18 30 29.67 1005 10 16 0.00 0.00
2:53 am 02:53 Clear 52 11.1 37 2.8 57 57 SE 12 19 29.65 1004 10 16 0.00 0.00
3:53 am 03:53 Clear 51 10.6 36 2.2 56 56 SE 8 13 29.64 1004 10 16 0.00 0.00
4:53 am 04:53 Clear 50 10 36 2.2 59 59 S 18 30 29.65 1004 10 16 0.00 0.00
5:53 am 05:53 Clear 46 7.8 35 1.7 66 66 SSW 7 11 29.67 1005 10 16 0.00 0.00
6:53 am 06:53 Clear 43 6.1 34 1.1 71 71 NW 18 30 29.73 1007 10 16 0.00 0.00
7:53 am 07:53 Sunny 40 4.4 29 -1.7 65 65 NW 16 26 29.78 1009 10 16 0.00 0.00
8:53 am 08:53 Sunny 42 5.6 30 -1.1 62 62 NNW 20 31 29.82 1010 10 16 0.00 0.00
9:53 am 09:53 Sunny 45 7.2 31 -0.6 58 58 NNW 18 30 29.85 1011 10 16 0.00 0.00
10:53 am 10:53 Partly Cloudy 47 8.3 31 -0.6 54 54 NNW 22 35 29.89 1012 10 16 0.00 0.00
11:53 am 11:53 Partly Cloudy 52 11.1 32 0 47 47 NNW 20 31 29.90 1012 10 16 0.00 0.00
12:53 pm 12:53 Partly Cloudy 52 11.1 32 0 47 47 NNW 17 28 29.90 1013 10 16 0.00 0.00
1:53 pm 13:53 Mostly Sunny 56 13.3 32 0 40 40 NNW 17 28 29.91 1013 10 16 0.00 0.00
2:53 pm 14:53 Sunny 57 13.9 33 0.6 41 41 NNW 17 28 29.90 1012 10 16 0.00 0.00
3:53 pm 15:53 Mostly Sunny 58 14.4 33 0.6 39 39 NNW 15 24 29.90 1013 10 16 0.00 0.00
4:53 pm 16:53 Sunny 57 13.9 32 0 39 39 NNW 12 19 29.92 1013 10 16 0.00 0.00
5:53 pm 17:53 Mostly Sunny 57 13.9 31 -0.6 37 37 N 13 20 29.93 1014 10 16 0.00 0.00
6:53 pm 18:53 Mostly Sunny 55 12.8 30 -1.1 38 38 N 17 28 29.97 1015 10 16 0.00 0.00
7:53 pm 19:53 Partly Cloudy 50 10 29 -1.7 44 44 N 8 13 30.02 1017 10 16 0.00 0.00
8:53 pm 20:53 Partly Cloudy 48 8.9 31 -0.6 52 52 N 6 9 30.03 1017 10 16 0.00 0.00
9:53 pm 21:53 Mostly Clear 46 7.8 30 -1.1 54 54 NNE 5 7 30.03 1017 10 16 0.00 0.00
10:53 pm 22:53 Clear 44 6.7 31 -0.6 60 60 NNE 3 6 30.05 1018 10 16 0.00 0.00
11:53 pm 23:53 Clear 42 5.6 31 -0.6 65 65 Calm 30.05 1018 10 16 0.00 0.00

Powered by AerisWeather